Home   Weather   Hoofddorp   Past weeks

Flag for Netherlands Past Weather in Hoofddorp, Netherlands — Yesterday and Last 2 Weeks

Now
46 °F

Sprinkles. Passing clouds.


Feels Like: 40 °F
Forecast: 40 / 51 °F
Wind: 16 mph from West

Location: Amsterdam Schiphol Airport

Current Time: Apr 27, 2017 at 3:14:38 pm

Latest Report: Apr 27, 2017 at 2:25 pm


Visibility: N/A

Pressure: 30.01 "Hg

Humidity: 66%

Dew Point: 36 °F

Location of HoofddorpLocation

Past Weather in Hoofddorp — Graph

°F

Hoofddorp Temperature Yesterday

Maximum temperature yesterday: 52 °F (at 4:25 pm)
Minimum temperature yesterday: 32 °F (at 5:25 am)
Average temperature yesterday: 42 °F

High & Low Weather Summary for the Past Weeks

 TemperatureHumidityPressure
High55 °F (Apr 14, 2:55 pm)100% (Apr 13, 2:25 am)30.63 "Hg (Apr 13, 2:25 am)
Low32 °F (Apr 20, 3:55 am)39% (Apr 19, 9:55 am)29.68 "Hg (Apr 25, 2:25 am)
Average46 °F74%30.14 "Hg
* Reported Apr 12 1:25 pm — Apr 27 1:55 pm, Hoofddorp, Weather by CustomWeather, © 2017

Note: Actual official high and low records may vary slightly from our data, if they occured in-between our weather recording intervals... More about our weather records

Advertising

Hoofddorp Weather History for the Previous 24 Hours

Scroll right to see more
 ConditionsComfort  
Time TempWeatherWind HumidityBarometerVisibility
1:55 pm
Thu, Apr 27
50 °FPassing clouds.12 mph58%30.01 "HgN/A
1:25 pm50 °FPassing clouds.13 mph58%30.01 "HgN/A
12:55 pm46 °FPassing clouds.16 mph66%30.01 "HgN/A
12:25 pm48 °FScattered showers. Passing clouds.14 mph58%30.01 "HgN/A
11:55 am48 °FPassing clouds.12 mph58%30.01 "HgN/A
11:25 am48 °FPassing clouds.12 mph62%30.01 "HgN/A
10:55 am46 °FScattered showers. Scattered clouds.8 mph66%30.01 "HgN/A
10:25 am45 °FScattered showers. Scattered clouds.8 mph71%30.01 "HgN/A
9:55 am46 °FPassing clouds.6 mph66%30.01 "HgN/A
8:55 am45 °FScattered showers. Passing clouds.1 mph71%30.01 "HgN/A
8:25 am43 °FScattered showers. Passing clouds.1 mph81%30.01 "HgN/A
7:55 am41 °FPassing clouds.1 mph81%30.01 "HgN/A
7:25 am37 °FPassing clouds.2 mph87%30.01 "HgN/A
6:55 am36 °FPassing clouds.2 mph87%30.01 "HgN/A
6:25 am36 °FPassing clouds.3 mph87%30.01 "HgN/A
5:55 am34 °FPassing clouds.2 mph93%30.01 "HgN/A
5:25 am34 °FPassing clouds.2 mph87%30.01 "HgN/A
4:55 am34 °FPassing clouds.3 mph87%30.01 "HgN/A
4:25 am34 °FPassing clouds.3 mph93%30.01 "HgN/A
3:25 am36 °FPassing clouds.2 mph87%30.01 "HgN/A
2:55 am34 °FPassing clouds.5 mph87%30.01 "HgN/A
2:25 am36 °FPassing clouds.3 mph81%30.01 "HgN/A
1:55 am37 °FPassing clouds.5 mph87%30.01 "HgN/A
1:25 am37 °FPassing clouds.3 mph81%30.01 "HgN/A
12:55 am37 °FPassing clouds.3 mph81%30.01 "HgN/A
12:25 am37 °FPassing clouds.5 mph81%30.01 "HgN/A
11:55 pm
Wed, Apr 26
39 °FPassing clouds.3 mph81%30.01 "HgN/A
11:25 pm39 °FPassing clouds.6 mph81%30.01 "HgN/A
10:55 pm39 °FPassing clouds.6 mph75%30.01 "HgN/A
10:25 pm39 °FPassing clouds.5 mph75%30.01 "HgN/A
9:55 pm41 °FPassing clouds.6 mph70%29.98 "HgN/A
9:25 pm43 °FPassing clouds.9 mph71%29.98 "HgN/A
8:55 pm45 °FPassing clouds.6 mph71%29.98 "HgN/A
8:25 pm45 °FSprinkles. Scattered clouds.10 mph66%29.98 "HgN/A
7:55 pm45 °FSprinkles. Scattered clouds.14 mph66%29.98 "HgN/A
7:25 pm46 °FSprinkles. Scattered clouds.10 mph62%29.95 "HgN/A
6:55 pm46 °FSprinkles. Scattered clouds.10 mph62%29.95 "HgN/A
6:25 pm46 °FSprinkles. Scattered clouds.12 mph66%29.95 "HgN/A
5:55 pm46 °FScattered showers. Passing clouds.13 mph62%29.95 "HgN/A
5:25 pm48 °FScattered showers. Passing clouds.14 mph62%29.95 "HgN/A
4:55 pm48 °FPassing clouds.15 mph58%29.95 "HgN/A
4:25 pm52 °FPassing clouds.17 mph54%29.92 "HgN/A
3:55 pm50 °FPassing clouds.15 mph58%29.92 "HgN/A
Weather by CustomWeather, © 2017

See weather overviewHow to use our weather pages